Powrót do katalogu

COSMOS 1818 COOLANT

LostLEO
NORAD 36953·DEBRIS·🇷🇺 Russia

Wystrzelony Feb 1, 1987 z Baikonur Cosmodrome

Loading…

Następne Przeloty (najbliższe 24 godziny)

TLE

NieaktualneSource: Space-Track

Epoka: Dec 13, 2014, 01:04 UTC

1 36953U 87011AH  14347.04462855  .00030334  00000-0  11028-1 0  9992
2 36953 065.0145 138.0882 0012497 286.7520 078.7055 14.33042685250478

Śledź COSMOS 1818 COOLANT w czasie rzeczywistym z AllMySat

Download on the App Store